Tracking 18980 objects as of 21-Feb-2018
HD Live streaming from Space Station
objects crossing your sky now

OPTUS A1 (AUSSAT 1)

Track OPTUS A1 (AUSSAT 1) now!
OPTUS A1 (AUSSAT 1) is classified as:


NORAD ID: 15993
Int'l Code: 1985-076B
Perigee: 35,901.4 km
Apogee: 35,971.1 km
Inclination: 15.3 °
Period: 1,443.4 minutes
Semi major axis: 42307 km
RCS: 1 m2 (large)
Launch date: August 27, 1985
Source: Australia (AUS)
Launch site: AIR FORCE EASTERN TEST RANGE (AFETR)
aabbcc
Your satellite tracking list
Your tracking list is empty




NASA's NSSDC Master Catalog

Two Line Element Set (TLE):
1 15993U 85076B   18051.14957546 -.00000292 +00000-0 +00000-0 0  9993
2 15993 015.3160 004.6736 0008238 301.3047 216.2690 00.99765683089275
Source of the keplerian elements: AFSPC